Location: Corralito
(10.2667°N, 66.9500°W)
Time: 00:05:09
(UTC+00:00)

YAOGAN 3 - Pass Details

Date: 08 December 2023
Orbit: 615 x 616 km, 97.9° (Epoch: 01 March)

Event Time Altitude Azimuth Distance (km) Brightness Sun altitude
Rises 23:38:08 0° 175° (S) 2,873 8.2 -21.9°
Reaches altitude 10° 23:40:20 10° 179° (S) 1,968 7.3 -22.4°
Maximum altitude 23:44:33 60° 259° (W) 702 5.0 -23.4°
Drops below altitude 10° 23:48:46 10° 339° (NNW) 1,967 7.1 -24.4°
Sets 23:50:59 0° 343° (NNW) 2,872 8.0 -24.9°
